Location: Sternwarte ZA, Rosenfeld-Brittheim
(48.2889°N, 8.6789°E)
Time: 01:25:46
(UTC+02:00)

ISS - Pass Details

Date: 17 September 2018
Orbit: 403 x 408 km, 51.6° (Epoch: 23 September)

Event Time Altitude Azimuth Distance (km) Brightness Sun altitude
Exits shadow 04:54:45 20° 139° (SE) 993 -1.8 -21.3°
Drops below altitude 10° 04:55:57 10° 132° (SE) 1,457 -0.8 -21.1°
Sets 04:58:03 0° 128° (SE) 2,312 0.3 -20.8°
